Location: Newark
(43.0000°N, 1.6781°W)
Time: 10:24:16
(UTC+00:00)

Explorer 7 - Pass Details

Date: 28 April 2021
Orbit: 484 x 677 km, 50.3° (Epoch: 07 May)

Event Time Altitude Azimuth Distance (km) Brightness Sun altitude
Rises 21:08:40 0° 299° (WNW) 2,669 11.7 -19.9°
Reaches altitude 10° 21:10:55 10° 306° (NW) 1,808 10.6 -20.2°
Maximum altitude 21:14:51 42° 19° (NNE) 813 7.8 -20.7°
Enters shadow 21:16:21 30° 66° (ENE) 1,034 8.0 -20.9°
Drops below altitude 10° 21:19:01 10° 91° (E) 1,920 - -21.2°
Sets 21:21:29 0° 98° (E) 2,857 - -21.5°
